Volver al catálogo

DELTA 2 R/B(2)

ActivoHEO
NORAD 27850·ROCKET BODY·🇺🇸 United States

Lanzado Jul 8, 2003 desde Cape Canaveral Space Force Station

Loading…

Próximos Pases (próximas 24 horas)

TLE

ObsoletoSource: Space-Track

Época: Jul 8, 2003, 04:33 UTC

1 27850U 03032B   03189.18962002 +.00000128 -26276-6 +00000-0 0  9990
2 27850 029.4018 147.7530 3267297 036.1096 001.5763 09.06835346000002

Sigue DELTA 2 R/B(2) en tiempo real con AllMySat

Download on the App Store